Location: Mount Cross
(36.6390°N, 79.4878°W)
Time: 07:16:35
(UTC+00:00)

Tiros 1 - Pass Details

Date: 04 April 2023
Orbit: 627 x 661 km, 48.4° (Epoch: 02 June)

Event Time Altitude Azimuth Distance (km) Brightness Sun altitude
Exits shadow 07:37:27 18° 35° (NE) 1,595 9.7 -37.1°
Drops below altitude 10° 07:38:51 10° 44° (NE) 2,074 10.5 -36.9°
Sets 07:41:21 0° 52° (NE) 2,990 11.5 -36.5°
